Location: Observatoire
(46.1952°N, 5.3391°E)
Time: 08:23:30
(UTC+01:00)

Explorer 7 - Pass Details

Date: 19 February 2026
Orbit: 430 x 541 km, 50.2° (Epoch: 9 March)

Event Time Altitude Azimuth Distance (km) Brightness Sun altitude
Rises 15:23:50 0° 233° (SW) 2,409 11.5 23.4°
Reaches altitude 10° 15:25:56 10° 229° (SW) 1,555 11.1 23.2°
Maximum altitude 15:29:22 58° 150° (SSE) 532 7.2 22.8°
Drops below altitude 10° 15:32:57 10° 71° (ENE) 1,617 8.8 22.3°
Sets 15:35:10 0° 67° (ENE) 2,517 9.7 22.1°
